This is the latest recevied weather packets stored in our database for station/object 9W4GWK-G. If no packets are shown the sender has not sent any weather packets the latest 10 day(s).
| Time | Temp. | Humidity | Pressure | Rain* | Wind** | Luminosity | Snow |
|---|---|---|---|---|---|---|---|
| 1777624512 | 25.56° C | 47% | 1007.9 hPa | - | - | - | - |
| 1777623610 | 26.11° C | 48% | 1007.7 hPa | - | - | - | - |
| 1777622708 | 26.11° C | 47% | 1006.9 hPa | - | - | - | - |
| 1777621806 | 26.67° C | 46% | 1007 hPa | - | - | - | - |
| 1777620904 | 27.22° C | 45% | 1007.2 hPa | - | - | - | - |
| 1777620002 | 28.33° C | 43% | 1007.3 hPa | - | - | - | - |
| 1777619100 | 28.89° C | 41% | 1007.3 hPa | - | - | - | - |
| 1777618198 | 29.44° C | 42% | 1007.8 hPa | - | - | - | - |
| 1777617296 | 29.44° C | 40% | 1008.2 hPa | - | - | - | - |
| 1777616394 | 29.44° C | 41% | 1008.5 hPa | - | - | - | - |
| 1777615492 | 29.44° C | 41% | 1009 hPa | - | - | - | - |
| 1777614590 | 29.44° C | 41% | 1009.3 hPa | - | - | - | - |
| 1777613688 | 29.44° C | 42% | 1009.6 hPa | - | - | - | - |
| 1777612786 | 30.56° C | 40% | 1010 hPa | - | - | - | - |
| 1777611884 | 30.56° C | 39% | 1010.5 hPa | - | - | - | - |
| 1777610982 | 31.11° C | 40% | 1011 hPa | - | - | - | - |
| 1777610080 | 31.67° C | 41% | 1011.1 hPa | - | - | - | - |
| 1777609178 | 32.78° C | 48% | 1011.2 hPa | - | - | - | - |
| 1777608276 | 32.78° C | 62% | 1011.4 hPa | - | - | - | - |
| 1777607374 | 32.78° C | 61% | 1011.7 hPa | - | - | - | - |
| 1777606472 | 32.78° C | 61% | 1012 hPa | - | - | - | - |
| 1777605570 | 32.78° C | 62% | 1012 hPa | - | - | - | - |
| 1777604668 | 32.78° C | 62% | 1012.1 hPa | - | - | - | - |
| 1777603766 | 32.78° C | 63% | 1012.1 hPa | - | - | - | - |
| 1777602864 | 32.22° C | 63% | 1012.1 hPa | - | - | - | - |
* Rain since midnight (hover to see other rain measurements)
** Current wind speed in m/s (hover to see current wind gust speed)